| time (UTC) | temp F | wind direction | speed MPH | gust MPH | rain 1hr in | rain 24hr in | rain mn in | humidity % | barometer mb |
| 20260904174514 | 64 | 287 | 4.0 | 9.0 | 0.00 | 0.31 | 0.31 | 87 | 1011.9 |
| 20260904173012 | 64 | 295 | 4.0 | 13.0 | 0.00 | 0.31 | 0.31 | 87 | 1011.7 |
| 20260904171512 | 64 | 284 | 3.0 | 9.0 | 0.00 | 0.31 | 0.31 | 89 | 1011.9 |
| 20260904170011 | 65 | 277 | 4.0 | 11.0 | 0.00 | 0.31 | 0.31 | 89 | 1011.6 |
| 20260904164513 | 65 | 272 | 4.0 | 11.0 | 0.00 | 0.31 | 0.31 | 90 | 1011.4 |
| 20260904163012 | 65 | 280 | 4.0 | 11.0 | 0.00 | 0.31 | 0.31 | 91 | 1011.1 |
| 20260904161513 | 65 | 284 | 4.0 | 11.0 | 0.00 | 0.31 | 0.31 | 92 | 1011.3 |
| 20260904160010 | 64 | 271 | 6.0 | 16.0 | 0.00 | 0.31 | 0.31 | 93 | 1011.3 |
| 20260904154511 | 64 | 272 | 6.0 | 18.0 | 0.00 | 0.31 | 0.31 | 94 | 1011.3 |
| 20260904153010 | 64 | 285 | 6.0 | 17.0 | 0.04 | 0.31 | 0.31 | 95 | 1011.2 |
| 20260904150010 | 63 | 282 | 6.0 | 17.0 | 0.05 | 0.31 | 0.31 | 95 | 1010.8 |
| 20260904144512 | 63 | 262 | 7.0 | 18.0 | 0.05 | 0.31 | 0.31 | 95 | 1010.7 |
| 20260904143011 | 63 | 277 | 7.0 | 17.0 | 0.02 | 0.27 | 0.27 | 95 | 1010.4 |
| 20260904141513 | 63 | 272 | 6.0 | 16.0 | 0.02 | 0.26 | 0.26 | 97 | 1010.4 |
| 20260904140011 | 64 | 266 | 5.0 | 11.0 | 0.02 | 0.26 | 0.26 | 97 | 1010.4 |
| 20260904134512 | 63 | 263 | 5.0 | 18.0 | 0.11 | 0.26 | 0.26 | 98 | 1010.3 |
| 20260904133011 | 64 | 298 | 4.0 | 15.0 | 0.11 | 0.25 | 0.25 | 98 | 1010.2 |
| 20260904131607 | 64 | 297 | 4.0 | 13.0 | 0.15 | 0.24 | 0.24 | 98 | 1010.2 |
| 20260904130107 | 64 | 302 | 3.0 | 11.0 | 0.22 | 0.22 | 0.22 | 97 | 1009.6 |
| 20260904124607 | 65 | 288 | 1.0 | 4.0 | 0.15 | 0.15 | 0.15 | 97 | 1009.6 |
| 20260904123106 | 64 | 270 | 2.0 | 7.0 | 0.13 | 0.13 | 0.13 | 96 | 1009.4 |
| 20260904121606 | 64 | 317 | 4.0 | 13.0 | 0.08 | 0.08 | 0.08 | 94 | 1009.6 |
| 20260904120104 | 74 | 254 | 7.0 | 25.0 | 0.00 | 0.00 | 0.00 | 80 | 1009.2 |
| 20260904114605 | 75 | 270 | 7.0 | 23.0 | 0.00 | 0.00 | 0.00 | 76 | 1008.8 |
| 20260904113104 | 74 | 284 | 10.0 | 30.0 | 0.00 | 0.00 | 0.00 | 77 | 1008.9 |
| 20260904111604 | 74 | 265 | 9.0 | 22.0 | 0.00 | 0.00 | 0.00 | 79 | 1009.3 |
| 20260904110104 | 72 | 276 | 6.0 | 23.0 | 0.00 | 0.00 | 0.00 | 83 | 1009.1 |
| 20260904104604 | 71 | 246 | 9.0 | 21.0 | 0.00 | 0.00 | 0.00 | 85 | 1009.6 |
| 20260904103104 | 72 | 292 | 10.0 | 29.0 | 0.00 | 0.00 | 0.00 | 80 | 1009.6 |
| 20260904100104 | 71 | 268 | 7.0 | 21.0 | 0.00 | 0.00 | 0.00 | 81 | 1009.7 |
| 20260904094604 | 72 | 277 | 7.0 | 23.0 | 0.00 | 0.00 | 0.00 | 80 | 1009.8 |
| 20260904093103 | 72 | 245 | 8.0 | 22.0 | 0.00 | 0.00 | 0.00 | 80 | 1009.4 |
| 20260904090104 | 72 | 273 | 9.0 | 30.0 | 0.00 | 0.00 | 0.00 | 78 | 1009.7 |
| 20260904084606 | 72 | 264 | 9.0 | 22.0 | 0.00 | 0.00 | 0.00 | 78 | 1009.5 |
| 20260904083104 | 71 | 257 | 9.0 | 25.0 | 0.00 | 0.00 | 0.00 | 79 | 1009.7 |
| 20260904074603 | 70 | 262 | 9.0 | 21.0 | 0.00 | 0.00 | 0.00 | 84 | 1010.1 |
| 20260904071603 | 69 | 266 | 9.0 | 22.0 | 0.00 | 0.00 | 0.00 | 84 | 1010.5 |
| 20260904064603 | 69 | 272 | 7.0 | 15.0 | 0.00 | 0.00 | 0.00 | 85 | 1010.8 |
| 20260904063103 | 69 | 276 | 7.0 | 23.0 | 0.00 | 0.00 | 0.00 | 86 | 1010.8 |
| 20260904061603 | 69 | 252 | 7.0 | 16.0 | 0.00 | 0.00 | 0.00 | 86 | 1010.7 |
| 20260904053102 | 69 | 262 | 6.0 | 18.0 | 0.00 | 0.00 | 0.00 | 86 | 1011.5 |
| 20260904051603 | 69 | 263 | 7.0 | 17.0 | 0.00 | 0.00 | 0.00 | 86 | 1011.6 |
| 20260904044602 | 68 | 258 | 7.0 | 16.0 | 0.00 | 0.00 | 0.00 | 88 | 1011.7 |
| 20260904043102 | 68 | 269 | 5.0 | 13.0 | 0.00 | 0.00 | 0.00 | 89 | 1011.8 |
| 20260904041603 | 68 | 242 | 7.0 | 16.0 | 0.00 | 0.00 | 0.00 | 89 | 1011.8 |
| 20260904034602 | 68 | 250 | 7.0 | 16.0 | 0.00 | 0.00 | 0.00 | 89 | 1012.0 |
| 20260904033102 | 68 | 263 | 6.0 | 15.0 | 0.00 | 0.00 | 0.00 | 89 | 1012.2 |
| 20260904024601 | 68 | 257 | 7.0 | 18.0 | 0.00 | 0.00 | 0.00 | 90 | 1012.6 |
| 20260904023103 | 68 | 245 | 7.0 | 16.0 | 0.00 | 0.00 | 0.00 | 90 | 1013.1 |
| 20260904021601 | 68 | 265 | 6.0 | 14.0 | 0.00 | 0.00 | 0.00 | 90 | 1013.3 |
| 20260904020101 | 68 | 244 | 6.0 | 16.0 | 0.00 | 0.00 | 0.00 | 90 | 1013.3 |
| 20260904014602 | 67 | 250 | 5.0 | 11.0 | 0.00 | 0.00 | 0.00 | 91 | 1013.6 |
| 20260904013101 | 67 | 259 | 5.0 | 11.0 | 0.00 | 0.00 | 0.00 | 92 | 1013.7 |
| 20260904011601 | 67 | 251 | 6.0 | 13.0 | 0.00 | 0.00 | 0.00 | 93 | 1013.7 |
| 20260904004601 | 67 | 243 | 5.0 | 11.0 | 0.00 | 0.00 | 0.00 | 94 | 1013.9 |
| 20260904003102 | 67 | 243 | 5.0 | 11.0 | 0.00 | 0.00 | 0.00 | 93 | 1013.9 |
| 20260903234600 | 66 | 248 | 5.0 | 11.0 | 0.00 | 0.00 | 0.00 | 93 | 1014.8 |
| 20260903233100 | 66 | 252 | 5.0 | 13.0 | 0.00 | 0.00 | 0.00 | 93 | 1015.0 |
| 20260903224601 | 66 | 239 | 6.0 | 11.0 | 0.00 | 0.00 | 0.00 | 90 | 1015.4 |
| 20260903221601 | 66 | 239 | 4.0 | 8.0 | 0.00 | 0.00 | 0.00 | 88 | 1015.7 |
| 20260903220100 | 65 | 248 | 5.0 | 8.0 | 0.00 | 0.00 | 0.00 | 86 | 1015.6 |
| 20260903213100 | 65 | 217 | 4.0 | 8.0 | 0.00 | 0.00 | 0.00 | 84 | 1015.6 |
| 20260903211602 | 66 | 242 | 4.0 | 8.0 | 0.00 | 0.00 | 0.00 | 84 | 1016.1 |
| 20260903210100 | 66 | 250 | 3.0 | 7.0 | 0.00 | 0.00 | 0.00 | 83 | 1015.9 |
| 20260903204600 | 67 | 239 | 4.0 | 8.0 | 0.00 | 0.00 | 0.00 | 82 | 1016.4 |
| 20260903203100 | 67 | 249 | 4.0 | 8.0 | 0.00 | 0.00 | 0.00 | 82 | 1016.3 |
| 20260903201600 | 67 | 258 | 1.0 | 4.0 | 0.00 | 0.00 | 0.00 | 82 | 1016.3 |
| 20260903200101 | 67 | 301 | 2.0 | 4.0 | 0.00 | 0.00 | 0.00 | 81 | 1016.6 |
| 20260903194601 | 68 | 289 | 2.0 | 6.0 | 0.00 | 0.00 | 0.00 | 80 | 1016.4 |
| 20260903193100 | 68 | 253 | 2.0 | 7.0 | 0.00 | 0.00 | 0.00 | 79 | 1016.4 |
| 20260903191600 | 69 | 284 | 2.0 | 7.0 | 0.00 | 0.00 | 0.00 | 78 | 1016.5 |
| 20260903190059 | 69 | 273 | 1.0 | 4.0 | 0.00 | 0.00 | 0.00 | 77 | 1016.2 |
| 20260903184601 | 70 | 291 | 3.0 | 8.0 | 0.00 | 0.00 | 0.00 | 74 | 1016.1 |
| 20260903183059 | 70 | 269 | 5.0 | 13.0 | 0.00 | 0.00 | 0.00 | 73 | 1016.1 |
| 20260903181600 | 71 | 265 | 5.0 | 13.0 | 0.00 | 0.00 | 0.00 | 74 | 1016.5 |
| 20260903180100 | 71 | 285 | 4.0 | 16.0 | 0.00 | 0.00 | 0.00 | 74 | 1016.4 |